{"data":{"norad_id":44868,"epoch":"2026-09-19T05:54:38.775168Z","epoch_age_seconds":130251,"freshness":"FRESH","line1":"1 44868U 19091A   26262.24628212 -.00000205  00000+0  00000+0 0  9991","line2":"2 44868   0.0459 332.7011 0000049 209.1870  54.9528  1.00272027 24951","mean_motion":1.00272027,"eccentricity":4.9e-6,"inclination_deg":0.0459,"raan_deg":332.7011,"arg_perigee_deg":209.187,"mean_anomaly_deg":54.9528,"bstar":0,"rev_number":2495,"period_min":1436.0934381031,"perigee_km":35786.320513088,"apogee_km":35786.733726796,"semimajor_km":42164.664119942,"source":"CELESTRAK","updated_at":"2026-09-20T09:00:35.291265Z"}}